Location: Gro�bocka
(50.8204°N, 11.9702°E)
Time: 06:34:28
(UTC+00:00)

CSL-04 DEB - Pass Details

Date: 29 October 2020
Orbit: 545 x 628 km, 98.8° (Epoch: 01 December)

Event Time Altitude Azimuth Distance (km) Brightness Sun altitude
Rises 16:28:01 0° 16° (NNE) 2,739 7.6 -6.3°
Reaches altitude 10° 16:30:10 10° 18° (NNE) 1,834 6.7 -6.7°
Maximum altitude 16:34:07 79° 104° (ESE) 563 4.3 -7.3°
Drops below altitude 10° 16:38:01 10° 192° (SSW) 1,813 7.3 -7.9°
Sets 16:40:08 0° 194° (SSW) 2,704 8.2 -8.2°
